Date String (YYYY-MM-DD hh:mm:ss) UTC,Instrument flags,Ambient pressure (hPa),Sample flow (lpm),Bypass flow (lpm),Sample temperature (°C),Ambient temperature (°C),ASC tube jacket temperature (°C),LED temperature (°C),Box temperature (°C),Sample RH (%),Span deviation,Mass concentration (μg/m³),Mass concentration (μg/m³),Mass concentration (μg/m³)
DateTimeUTC,F1_M11,P_M11,Q1_M11,Q2_M11,T1_M11,T2_M11,T3_M11,T4_M11,T5_M11,U1_M11,ZSPAN_M11,X0_M11,X2_M11,X1_M11
2022-02-16 00:00:00,,0813.8,4.99,0.00,29.7,28.8,00.0,38.7,31.4,09.3,0001.4,0018.81,0009.20,0008.05
2022-02-16 00:01:00,,0814.0,5.02,0.00,29.7,28.7,00.0,38.7,31.4,09.3,0003.6,0019.24,0009.77,0008.55
2022-02-16 00:02:00,,0813.8,4.98,0.00,29.7,28.7,00.0,38.7,31.4,08.0,0003.5,0019.81,0010.19,0008.95
2022-02-16 00:03:00,,0813.7,5.02,0.00,29.7,28.8,00.0,38.7,31.4,08.0,0003.6,0020.65,0010.52,0009.25
2022-02-16 00:04:00,,0813.6,4.98,0.00,29.7,28.8,00.0,38.7,31.4,08.4,0003.4,0020.76,0010.95,0009.64
2022-02-16 00:05:00,,0813.9,5.00,0.00,29.7,28.8,00.0,38.7,31.4,08.7,0003.5,0021.06,0011.26,0009.94
2022-02-16 00:06:00,,0814.1,5.01,0.00,29.7,28.8,00.0,38.7,31.5,08.2,0003.0,0023.14,0011.52,0010.16
2022-02-16 00:07:00,,0814.2,5.00,0.00,29.7,28.8,00.0,38.7,31.5,07.2,0003.0,0023.18,0011.58,0010.22
2022-02-16 00:08:00,,0813.9,5.01,0.00,29.7,28.9,00.0,38.7,31.5,07.2,0003.5,0022.78,0011.55,0010.24
2022-02-16 00:09:00,,0814.2,4.98,0.00,29.7,28.9,00.0,38.7,31.5,07.7,0003.3,0022.27,0011.59,0010.27
2022-02-16 00:10:00,,0814.2,5.01,0.00,29.7,28.9,00.0,38.7,31.5,08.1,0002.9,0021.69,0011.60,0010.33
2022-02-16 00:11:00,,0814.1,4.99,0.00,29.7,28.9,00.0,38.7,31.5,07.9,0002.9,0021.63,0011.48,0010.25
2022-02-16 00:12:00,,0814.0,5.00,0.00,29.7,28.9,00.0,38.7,31.5,07.6,0003.4,0022.56,0011.23,0010.01
2022-02-16 00:13:00,,0814.1,5.00,0.00,29.7,28.9,00.0,38.7,31.5,07.6,0003.5,0023.06,0011.06,0009.85
2022-02-16 00:14:00,,0814.0,5.02,0.00,29.7,28.9,00.0,38.7,31.5,06.6,0003.6,0022.93,0010.97,0009.74
2022-02-16 00:15:00,,0814.0,4.98,0.00,29.7,28.9,00.0,38.7,31.5,06.4,0004.2,0023.09,0010.75,0009.49
2022-02-16 00:16:00,,0814.2,5.02,0.00,29.7,28.9,00.0,38.7,31.5,06.6,0004.9,0023.48,0010.44,0009.20
2022-02-16 00:17:00,,0814.2,4.99,0.00,29.7,28.9,00.0,38.7,31.5,07.1,0005.5,0021.95,0010.20,0008.99
2022-02-16 00:18:00,,0814.1,5.01,0.00,29.7,28.9,00.0,38.7,31.5,07.1,0005.9,0021.64,0010.15,0008.95
2022-02-16 00:19:00,,0814.2,4.99,0.00,29.7,28.8,00.0,38.7,31.5,07.1,0005.6,0022.41,0010.14,0008.94
2022-02-16 00:20:00,,0814.0,5.02,0.00,29.7,28.8,00.0,38.7,31.4,07.3,0005.9,0022.77,0010.16,0008.92
2022-02-16 00:21:00,,0813.7,4.98,0.00,29.7,28.8,00.0,38.7,31.4,07.4,0000.0,0022.69,0010.11,0008.83
2022-02-16 00:22:00,,0813.8,5.02,0.00,29.7,28.8,00.0,38.7,31.4,07.5,0000.0,0023.32,0010.05,0008.76
2022-02-16 00:23:00,,0813.7,4.99,0.00,29.7,28.8,00.0,38.7,31.4,07.7,0000.0,0021.94,0010.08,0008.80
2022-02-16 00:24:00,,0813.8,5.01,0.00,29.7,28.8,00.0,38.7,31.4,07.7,0000.0,0021.36,0010.10,0008.82
2022-02-16 00:25:00,,0813.8,5.00,0.00,29.7,28.7,00.0,38.7,31.4,07.8,0000.0,0021.90,0010.27,0008.99
2022-02-16 00:26:00,,0813.8,5.00,0.00,29.7,28.8,00.0,38.7,31.4,07.7,0000.0,0022.68,0010.59,0009.24
2022-02-16 00:27:00,,0813.8,5.00,0.00,29.7,28.8,00.0,38.7,31.4,07.7,0004.7,0022.64,0010.86,0009.47
2022-02-16 00:28:00,,0813.7,4.99,0.00,29.7,28.8,00.0,38.7,31.4,07.7,0004.8,0024.52,0011.02,0009.61
2022-02-16 00:29:00,,0813.7,5.02,0.00,29.7,28.8,00.0,38.7,31.3,07.7,0004.5,0025.30,0011.20,0009.72
2022-02-16 00:30:00,,0813.7,4.99,0.00,29.7,28.8,00.0,38.7,31.3,07.7,0004.6,0024.92,0011.46,0009.88
2022-02-16 00:31:00,,0813.8,5.00,0.00,29.6,28.8,00.0,38.7,31.3,07.8,0004.2,0025.89,0011.63,0010.03
2022-02-16 00:32:00,,0813.9,4.99,0.00,29.6,28.7,00.0,38.6,31.3,07.9,0003.9,0026.96,0011.72,0010.12
2022-02-16 00:33:00,,0813.8,5.00,0.00,29.6,28.7,00.0,38.6,31.3,07.8,0003.8,0027.14,0011.77,0010.15
2022-02-16 00:34:00,,0814.1,5.01,0.00,29.6,28.7,00.0,38.6,31.3,07.7,0003.6,0027.64,0011.77,0010.10
2022-02-16 00:35:00,,0814.5,4.99,0.00,29.6,28.7,00.0,38.6,31.3,07.7,0003.6,0027.79,0011.79,0010.09
2022-02-16 00:36:00,,0814.1,5.00,0.00,29.6,28.7,00.0,38.6,31.3,07.7,0003.9,0028.49,0011.78,0010.05
2022-02-16 00:37:00,,0814.0,5.01,0.00,29.6,28.7,00.0,38.6,31.3,07.6,0004.0,0028.47,0011.67,0010.00
2022-02-16 00:38:00,,0814.0,4.99,0.00,29.6,28.7,00.0,38.6,31.3,07.5,0003.8,0029.31,0011.65,0009.97
2022-02-16 00:39:00,,0813.9,5.02,0.00,29.6,28.6,00.0,38.6,31.3,07.3,0003.9,0028.44,0011.67,0009.93
2022-02-16 00:40:00,,0814.3,4.98,0.00,29.6,28.6,00.0,38.6,31.3,07.3,0004.3,0028.48,0011.60,0009.87
2022-02-16 00:41:00,,0814.0,5.00,0.00,29.6,28.6,00.0,38.6,31.3,07.1,0004.6,0029.12,0011.43,0009.76
2022-02-16 00:42:00,,0814.0,5.01,0.00,29.6,28.6,00.0,38.6,31.3,07.1,0004.8,0029.86,0011.34,0009.66
2022-02-16 00:43:00,,0814.0,4.99,0.00,29.6,28.6,00.0,38.6,31.3,07.3,0004.9,0029.78,0011.30,0009.61
2022-02-16 00:44:00,,0814.0,5.00,0.00,29.5,28.5,00.0,38.6,31.3,07.4,0005.1,0030.09,0011.33,0009.64
2022-02-16 00:45:00,,0814.0,5.00,0.00,29.5,28.5,00.0,38.6,31.3,07.4,0005.1,0030.55,0011.33,0009.67
2022-02-16 00:46:00,,0814.0,5.01,0.00,29.5,28.5,00.0,38.6,31.3,07.5,0005.1,0031.28,0011.40,0009.69
2022-02-16 00:47:00,,0814.0,4.99,0.00,29.5,28.6,00.0,38.5,31.3,07.5,0005.0,0031.08,0011.44,0009.71
2022-02-16 00:48:00,,0814.0,5.01,0.00,29.5,28.6,00.0,38.5,31.3,07.5,0004.7,0030.44,0011.47,0009.72
2022-02-16 00:49:00,,0814.0,5.00,0.00,29.5,28.6,00.0,38.5,31.3,07.4,0004.6,0029.30,0011.44,0009.71
2022-02-16 00:50:00,,0814.0,4.99,0.00,29.5,28.6,00.0,38.5,31.3,07.4,0004.4,0029.38,0011.41,0009.72
2022-02-16 00:51:00,,0814.0,5.01,0.00,29.5,28.6,00.0,38.5,31.3,07.2,0004.1,0029.89,0011.44,0009.72
2022-02-16 00:52:00,,0813.9,5.00,0.00,29.5,28.6,00.0,38.5,31.3,07.2,0004.1,0029.28,0011.49,0009.73
2022-02-16 00:53:00,,0814.0,5.01,0.00,29.6,28.6,00.0,38.5,31.3,06.9,0003.9,0026.83,0011.41,0009.69
2022-02-16 00:54:00,,0814.0,4.99,0.00,29.6,28.6,00.0,38.5,31.3,06.7,0003.9,0025.35,0011.25,0009.59
2022-02-16 00:55:00,,0814.0,5.01,0.00,29.6,28.6,00.0,38.5,31.3,06.7,0003.7,0024.26,0011.14,0009.49
2022-02-16 00:56:00,,0814.0,5.00,0.00,29.6,28.6,00.0,38.5,31.3,07.0,0003.4,0023.50,0011.08,0009.41
2022-02-16 00:57:00,,0814.0,4.99,0.00,29.5,28.5,00.0,38.5,31.3,07.1,0003.5,0022.66,0010.90,0009.33
2022-02-16 00:58:00,,0814.0,5.02,0.00,29.5,28.5,00.0,38.5,31.2,07.2,0003.6,0022.05,0010.85,0009.26
2022-02-16 00:59:00,,0814.0,5.00,0.00,29.5,28.4,00.0,38.5,31.2,07.3,0003.9,0021.63,0010.82,0009.21
